Regional Weather Roundup
Issued by NWS

Home | Current Version | Previous Version | Text Only | Print | Product List | Glossary Off
Versions: 1 2 3 4 5 6 7 8 9 10 11 12 13 14 15 16 17 18 19 20 21 22 23 24 25 26 27 28 29 30 31 32 33 34 35 36 37 38 39 40 41 42 43 44 45 46 47 48 49 50

000
ASUS45 KSLC 310810
RWRUT

UTAH REGIONAL WEATHER ROUNDUP
NATIONAL WEATHER SERVICE SALT LAKE CITY UT
200 AM MDT SUN AUG 31 2014

UTZ001>011-023>025-310900-

NORTHERN UTAH

CITY           SKY/WX    TMP DP  RH WIND       PRES   REMARKS
HILL AFB       CLOUDY    66  47  50 NW10      29.86R
LOGAN          CLOUDY    62  50  64 N7        29.91R
OGDEN          CLOUDY    67  46  47 NW7       29.84R
PROVO AIRPORT  CLOUDY    72  45  37 S12       29.86R
SALT LAKE CITY CLOUDY    67  50  54 W6        29.82F
VERNAL         CLOUDY    66  45  46 NW6       29.89S
WENDOVER       MOCLDY    70  39  32 NW12G17   29.89R
HEBER CITY     CLOUDY    64  43  45 N7        29.92S
WEST JORDAN    CLEAR     70  52  52 CALM      29.85F

$$

UTZ012>022-026-027-310900-

SOUTHERN UTAH

CITY           SKY/WX    TMP DP  RH WIND       PRES   REMARKS
BRYCE CANYON   CLEAR     56  34  43 S9        30.14F
CEDAR CITY     CLEAR     65  32  29 W12       29.96F
MILFORD        PTCLDY    71  34  25 S16       29.90R
MOAB/CYNLANDS  CLEAR     75  35  23 SW12      29.82S
PRICE          MOCLDY    66  41  40 VRB5      29.93R
ST GEORGE      CLOUDY    79  39  24 SE6       29.81R

$$

REGIONAL REPORTS     COLORADO/ARIZONA

CITY           SKY/WX    TMP DP  RH WIND       PRES   REMARKS
CRAIG, CO      CLOUDY    58  47  66 N6        29.95F
GRAND JUNCTION CLOUDY    69  41  36 E14       29.87S
RIFLE          MOCLDY    60  48  64 NE3       29.94F
MONTROSE       PTCLDY    63  40  42 SE13      30.00F
CORTEZ         CLEAR     52  43  71 E5        30.05F
PAGE, AZ       CLEAR     81  34  18 S12       29.91S
GRAND CANYON     N/A    N/A N/A N/A MISG        N/A
KINGMAN        MOCLDY    86  33  15 SW16G26   29.90R
FLAGSTAFF      CLEAR     54  39  57 NW5       30.21S

$$

REGIONAL REPORTS    NEVADA/IDAHO/WYOMING

CITY           SKY/WX    TMP DP  RH WIND       PRES   REMARKS
LAS VEGAS, NV  PTCLDY    90  34  13 S16       29.68S
ELY            CLOUDY    60  30  32 CALM      30.03R
ELKO           PTCLDY    66  32  28 N7        29.98R
POCATELLO, ID  CLOUDY    58  51  78 SW18G28   29.94R
BURLEY         MOCLDY    54  48  80 SW14      29.94S
EVANSTON, WY   CLOUDY    58  41  53 VRB5      30.01S
ROCK SPRINGS   CLOUDY    53  46  77 S10       29.97F

$$


USA.gov is the U.S. government's official web portal to all federal, state and local government web resources and services.